CW8540 Weather Reports


Display with metric or nautical units.
time (UTC)temp
F
wind
direction
speed
MPH
gust
MPH
rain 1hr
in
rain 24hr
in
rain mn
in
humidity
%
barometer
mb
20260504023043 53 0 1.0 6.0 0.00 0.00 0.00 40 1011.3
20260504021541 54 340 3.0 9.0 0.00 0.00 0.00 40 1011.2
20260504020045 55 342 3.0 9.0 0.00 0.00 0.00 39 1011.0
20260504014558 56 30 4.0 10.0 0.00 0.00 0.00 37 1010.8
20260504013047 58 42 3.0 9.0 0.00 0.00 0.00 36 1010.6
20260504011544 58 38 2.0 9.0 0.00 0.00 0.00 36 1010.4
20260504010040 60 37 2.0 11.0 0.00 0.00 0.00 34 1010.2
20260504004542 60 342 3.0 12.0 0.00 0.00 0.00 32 1010.1
20260504003048 61 360 3.0 11.0 0.00 0.00 0.00 33 1009.9
20260504001545 61 329 7.0 11.0 0.00 0.00 0.00 31 1009.7
20260504000046 62 349 4.0 12.0 0.00 0.00 0.00 30 1009.5
20260503234548 63 360 7.0 13.0 0.00 0.00 0.00 30 1009.4
20260503233040 65 348 6.0 14.0 0.00 0.00 0.00 30 1009.3
20260503231548 63 323 4.0 12.0 0.00 0.00 0.00 31 1009.3
20260503230048 63 360 4.0 10.0 0.00 0.00 0.00 31 1009.3
20260503224545 64 340 3.0 12.0 0.00 0.00 0.00 30 1009.5
20260503223044 65 327 5.0 12.0 0.00 0.00 0.00 30 1009.2
20260503221542 65 346 3.0 12.0 0.00 0.00 0.00 30 1009.2
20260503220049 64 360 6.0 10.0 0.00 0.00 0.00 31 1008.9
20260503214541 67 324 3.0 13.0 0.00 0.00 0.00 29 1009.0
20260503213040 67 312 5.0 26.0 0.00 0.00 0.00 28 1008.5
20260503211547 69 300 6.0 30.0 0.00 0.00 0.00 26 1008.7
20260503210047 68 332 5.0 23.0 0.00 0.00 0.00 29 1008.8
20260503204542 68 333 6.0 24.0 0.00 0.00 0.00 28 1008.7
20260503203041 67 313 6.0 23.0 0.00 0.00 0.00 29 1008.7
20260503201541 67 290 13.0 24.0 0.00 0.00 0.00 27 1008.6
20260503200047 68 350 4.0 18.0 0.00 0.00 0.00 28 1008.7
20260503194543 67 290 8.0 22.0 0.00 0.00 0.00 31 1008.7
20260503193049 67 338 8.0 20.0 0.00 0.00 0.00 29 1008.9
20260503191542 67 5 12.0 25.0 0.00 0.00 0.00 30 1009.0
20260503190041 66 293 16.0 25.0 0.00 0.00 0.00 28 1008.8
20260503184554 67 360 4.0 23.0 0.00 0.00 0.00 30 1008.8
20260503183054 66 281 12.0 22.0 0.00 0.00 0.00 29 1009.1
20260503181544 66 263 5.0 23.0 0.00 0.00 0.00 33 1009.0
20260503180047 66 350 6.0 21.0 0.00 0.00 0.00 33 1009.0
20260503174542 66 285 8.0 17.0 0.00 0.00 0.00 33 1009.0
20260503173058 65 346 6.0 23.0 0.00 0.00 0.00 34 1009.0
20260503171540 64 352 11.0 22.0 0.00 0.00 0.00 37 1008.9
20260503081610 49 333 1.0 3.0 0.00 0.00 0.00 46 1010.2
20260503071549 57 296 8.0 13.0 0.00 0.00 0.00 35 1010.1
20260503054549 49 53 1.0 3.0 0.00 0.00 0.00 64 1009.9
20260503053045 48 0 0.0 1.0 0.00 0.00 0.00 67 1010.0
20260503051543 46 0 0.0 3.0 0.00 0.00 0.00 66 1010.1
20260503050043 48 75 1.0 3.0 0.00 0.00 0.00 62 1010.2
20260503044543 49 84 0.0 2.0 0.00 0.00 0.00 60 1010.4
20260503043043 50 0 0.0 1.0 0.00 0.00 0.00 59 1010.3
20260503041546 51 0 0.0 2.0 0.00 0.00 0.00 58 1010.4
20260503040049 54 0 0.0 1.0 0.00 0.00 0.00 50 1010.3
20260503034548 53 71 1.0 3.0 0.00 0.00 0.00 49 1010.4
20260503033058 55 57 0.0 2.0 0.00 0.00 0.00 49 1010.3
20260503031552 57 57 1.0 3.0 0.00 0.00 0.00 42 1010.1
20260503030052 59 55 2.0 4.0 0.00 0.00 0.00 38 1010.1
20260503024547 61 227 0.0 1.0 0.00 0.00 0.00 34 1010.0